Theta_e
310 314 322 323 314 310 314 315 316 316 324 327 350 355 357 355 360 365 356 358 359 353 346 341 341 341 339 335 325 324 323 325 326 326 325 327 329 329 332 337 337 335 327 326 329 330 331 326 330
311 318 321 315 312 313 312 315 319 318 327 326 353 355 357 359 352 358 361 360 356 353 348 341 340 340 340 337 328 324 324 325 325 325 325 328 333 336 340 339 336 325 326 326 328 330 327 328 334
316 319 316 314 311 313 314 317 316 318 317 322 322 343 348 349 346 348 360 355 353 354 351 343 339 339 340 338 333 326 325 325 326 325 327 331 335 339 340 336 326 324 325 326 329 329 325 335 339
320 313 312 317 319 316 318 319 317 318 319 317 321 336 335 341 339 356 360 355 355 354 352 346 340 338 340 339 338 329 325 327 327 326 328 333 334 337 338 328 324 324 324 327 330 324 330 339 341
319 309 313 316 316 316 316 315 316 316 318 317 323 330 329 329 346 360 360 357 354 354 351 344 340 337 338 340 339 335 326 327 328 328 329 331 332 335 332 328 325 325 325 329 326 323 337 340 342
310 309 313 315 315 314 314 314 317 316 316 317 320 322 323 320 329 349 355 358 358 356 353 346 341 337 337 340 339 340 328 326 329 329 330 330 330 330 332 327 326 325 328 328 322 329 338 340 343
312 311 314 314 315 315 316 314 315 317 316 317 319 321 320 317 319 325 351 357 359 357 354 349 343 337 336 339 340 341 334 327 329 330 332 332 331 332 332 327 326 327 329 327 323 333 338 341 342
310 309 314 313 314 314 314 315 314 314 317 318 318 317 316 317 319 323 351 358 358 357 354 350 344 338 335 339 341 341 338 328 328 329 331 332 331 331 329 324 324 326 329 324 326 335 338 340 342
309 308 309 312 315 314 313 315 315 315 315 316 317 316 317 318 319 323 355 356 356 354 352 349 345 341 339 340 343 343 340 331 328 330 331 332 331 330 325 324 324 326 329 323 330 337 339 340 343
310 307 311 310 316 315 315 315 315 316 315 316 316 317 318 318 318 316 321 352 355 354 352 349 344 344 342 342 344 344 343 336 332 332 333 333 332 330 326 326 325 327 329 323 331 337 340 342 343
313 312 312 316 317 316 316 317 316 316 315 315 316 317 317 318 316 316 317 318 342 355 352 349 345 340 344 346 347 344 344 340 334 333 334 335 334 330 328 327 326 329 329 324 332 338 340 343 344
316 316 316 315 315 314 314 315 315 316 315 315 315 315 317 317 317 316 317 317 345 347 354 352 348 343 343 345 345 345 345 342 337 334 335 336 335 331 330 329 326 333 329 324 332 338 341 343 345
316 316 316 315 314 313 314 314 314 314 313 313 314 315 315 317 317 318 318 318 348 352 350 350 347 344 347 347 342 342 344 343 339 336 336 336 335 332 334 335 335 336 333 325 330 339 343 347 345
315 316 316 315 314 314 315 314 315 315 314 315 315 314 313 315 317 318 318 320 332 353 351 348 346 345 345 345 345 341 342 342 341 339 338 337 336 333 340 339 338 338 339 328 330 338 343 346 343
317 317 316 317 317 315 315 316 316 315 315 315 314 316 317 318 318 318 320 322 321 349 350 350 348 346 343 343 344 344 341 339 342 340 338 337 336 333 341 342 340 339 337 331 334 337 342 343 342
318 317 317 316 316 318 316 316 315 315 315 316 316 316 316 316 317 319 320 319 319 323 348 349 351 347 343 344 346 345 343 342 340 340 339 338 337 335 338 343 341 338 342 336 335 346 346 344 342
314 316 316 316 316 317 318 317 316 315 315 316 315 315 315 315 315 318 318 318 319 320 330 347 349 351 347 345 340 347 343 342 343 342 340 338 337 336 336 343 342 339 339 340 343 346 345 346 344
315 315 315 315 316 315 316 316 316 316 316 316 315 315 314 314 314 317 318 318 319 319 321 325 337 349 350 350 350 349 345 342 340 341 341 340 339 338 337 343 343 338 339 346 346 344 346 346 346
316 316 315 315 315 317 317 316 317 315 315 314 314 314 314 315 316 317 318 319 320 318 320 321 325 330 342 350 349 349 348 348 345 344 340 339 341 341 337 342 342 340 338 342 345 346 346 346 346
316 315 315 316 318 318 317 318 318 318 316 315 316 317 315 316 316 317 319 321 322 322 321 321 321 321 324 326 325 341 342 343 346 346 346 343 339 342 342 341 342 341 340 344 344 345 345 346 345
317 317 316 317 318 318 317 318 318 318 317 319 318 316 316 316 316 319 318 320 320 322 323 322 322 322 322 322 327 345 346 347 344 344 345 345 343 340 342 341 340 340 344 346 343 345 346 346 342
317 316 317 317 318 319 318 319 318 319 321 321 319 316 317 316 316 316 315 316 317 321 322 323 323 325 326 323 323 331 343 346 344 337 342 345 344 343 342 341 339 339 345 345 344 344 346 345 339
317 317 317 318 317 315 317 317 317 322 322 321 318 316 313 314 315 316 316 319 321 320 320 321 322 323 324 326 329 331 343 343 340 340 343 344 344 343 342 341 340 338 345 346 345 347 347 345 343
318 317 315 315 314 318 318 318 317 321 321 321 317 315 314 316 316 316 317 318 319 319 319 318 319 320 321 328 329 332 337 342 344 345 345 344 344 344 343 341 341 340 341 345 344 347 346 345 344
315 313 316 319 317 319 317 318 316 322 320 320 319 316 316 317 316 317 316 316 319 320 321 322 321 321 320 322 327 332 338 337 337 341 344 344 343 343 342 340 342 343 341 345 345 347 346 346 341
317 314 316 323 322 320 318 320 317 321 319 318 318 317 317 317 317 318 318 318 319 319 320 319 320 320 320 320 321 322 329 333 332 338 342 343 342 342 341 341 342 341 341 343 344 347 347 345 342
318 317 314 317 317 319 318 318 317 321 318 319 320 320 319 319 317 316 316 316 318 319 319 319 318 319 321 322 321 323 324 335 339 335 334 338 342 342 341 341 340 340 343 343 343 347 345 344 339
317 315 317 315 322 323 319 319 319 319 320 318 318 317 316 315 316 316 316 316 317 318 318 319 320 319 319 321 323 323 327 329 338 336 338 338 341 341 341 340 341 339 341 342 343 345 345 340 332
316 316 316 317 319 326 326 323 316 315 316 315 315 314 314 314 313 314 315 318 319 318 318 317 317 318 321 321 323 326 330 330 336 338 336 340 341 340 341 340 340 340 338 342 343 344 342 337 330
318 319 316 316 321 319 321 323 318 317 315 314 313 317 316 312 314 313 315 317 317 316 316 316 316 318 318 319 324 329 329 327 331 337 336 340 342 340 340 339 335 334 339 342 342 342 337 334 327
Wind_Speed
10 5 8 3 4 5 4 6 3 7 3 6 8 10 7 4 3 4 6 24 18 35 30 25 25 25 24 22 22 22 23 23 24 20 21 21 20 20 19 17 15 12 11 10 8 6 5 5 7
6 5 3 2 4 2 5 5 5 5 4 7 14 14 11 9 5 10 9 22 38 38 32 28 26 25 24 22 21 22 23 24 24 21 20 20 18 17 17 15 14 12 10 9 7 5 4 5 7
4 4 3 4 3 4 4 4 9 14 9 4 6 7 5 3 3 4 15 32 38 36 33 29 27 26 25 23 21 21 22 23 23 23 21 19 16 14 15 14 13 12 10 8 6 4 4 5 6
4 5 4 4 5 8 5 12 8 7 7 9 6 7 5 3 3 12 27 30 35 33 32 30 28 27 26 25 22 21 22 23 22 22 21 18 15 13 12 12 13 12 11 8 5 4 4 6 6
2 3 3 1 6 6 6 8 13 8 2 6 2 4 6 8 21 27 26 25 29 30 29 28 27 26 26 26 24 21 22 23 22 21 20 19 15 13 11 11 11 11 11 8 5 5 4 6 7
4 3 4 2 5 6 9 8 5 5 5 8 8 5 4 3 14 16 23 24 24 28 27 26 24 24 24 25 24 22 21 22 22 20 19 18 16 14 13 11 11 10 9 8 6 5 4 5 7
5 4 3 3 5 6 6 10 8 5 6 7 2 5 1 13 15 12 15 26 25 27 27 27 25 23 22 24 25 24 22 23 23 21 19 17 15 13 12 12 10 10 8 7 6 5 3 4 6
5 4 2 3 4 5 6 6 4 9 4 5 2 4 4 6 10 15 14 19 25 25 27 28 27 26 25 24 24 25 24 23 24 23 21 18 15 14 13 13 12 11 9 7 6 5 4 4 5
4 4 2 4 5 7 6 7 9 5 5 4 3 4 2 11 13 20 14 13 19 20 20 24 27 27 25 26 26 24 23 23 23 23 21 20 17 17 16 14 13 13 10 8 7 6 5 4 6
4 4 6 6 4 4 4 5 5 7 10 8 9 9 10 11 12 11 14 11 17 19 24 25 25 26 26 26 27 27 25 25 25 25 24 22 20 18 17 15 15 13 11 10 9 8 7 7 7
4 6 6 4 5 5 2 2 4 3 5 7 8 10 8 3 5 7 10 15 16 22 25 27 27 28 28 27 27 28 28 26 26 25 25 23 22 21 19 17 17 16 14 13 12 11 10 7 7
2 2 2 5 4 5 7 3 6 3 8 8 9 7 5 5 2 4 3 10 9 19 27 27 26 29 29 27 28 27 29 28 27 26 26 24 23 22 21 21 20 18 16 15 14 13 11 11 9
2 4 9 9 8 7 6 7 5 7 11 9 10 10 10 4 5 4 2 3 9 18 24 25 24 27 25 24 26 27 29 30 30 30 28 27 26 25 23 23 21 19 17 17 16 15 11 9 11
4 8 10 7 11 8 5 10 4 12 11 9 9 11 10 8 4 3 5 8 9 21 26 23 25 26 28 26 27 28 29 30 32 32 32 30 29 28 26 24 22 21 20 20 19 17 12 12 19
3 8 10 5 6 4 3 6 10 16 9 9 9 6 4 3 4 6 3 1 4 18 25 24 27 28 28 30 27 27 27 28 32 34 34 32 31 32 28 27 25 22 20 20 18 17 13 23 23
5 3 4 8 6 4 6 8 10 11 6 9 8 8 8 7 9 11 11 7 5 6 18 19 20 26 31 26 23 30 29 28 29 31 34 34 33 35 34 27 30 23 23 22 19 16 25 24 23
5 2 4 7 6 4 1 7 9 10 8 10 8 9 8 9 7 16 19 17 17 16 17 21 20 21 30 28 24 25 30 29 30 31 30 32 34 35 37 30 31 27 24 22 22 28 26 22 18
5 4 4 7 7 9 7 6 7 8 7 9 8 8 9 9 11 21 23 22 23 21 20 19 20 21 20 18 21 24 27 31 31 32 32 32 33 35 36 30 31 27 25 22 26 25 23 23 20
3 3 6 7 10 4 5 8 12 9 8 10 9 9 9 10 12 25 27 23 25 23 24 24 24 23 23 23 24 24 24 30 32 29 40 37 36 35 38 34 30 27 26 24 25 25 25 19 18
4 5 7 5 4 6 9 18 15 14 9 6 10 16 14 6 7 8 10 11 11 18 22 26 27 28 27 27 25 26 27 22 34 30 26 37 41 39 39 38 33 29 26 25 26 28 22 12 21
3 2 4 7 4 3 7 10 5 10 6 5 7 7 7 9 8 6 8 11 7 9 12 19 25 27 29 30 29 24 27 25 21 32 31 25 39 42 42 39 34 33 23 30 28 28 28 16 24
4 4 5 8 7 5 4 7 8 5 7 5 7 8 4 7 6 5 6 7 5 4 4 7 13 21 29 32 32 31 26 23 30 33 36 39 28 35 44 35 35 33 29 34 30 29 29 24 25
7 4 4 5 7 2 5 2 7 5 5 7 10 9 8 6 1 3 4 3 10 8 6 7 8 7 14 32 36 35 30 31 31 32 32 35 40 32 34 29 28 32 32 33 31 30 27 26 26
3 3 6 4 3 0 6 3 5 3 5 4 6 9 9 9 9 8 11 12 9 6 5 8 8 10 13 14 29 33 32 31 25 25 28 29 36 41 33 34 38 35 36 34 32 32 30 28 26
8 7 4 5 4 5 5 5 8 2 4 4 4 8 7 6 6 5 6 5 9 13 14 13 14 16 17 14 13 24 27 29 27 28 26 27 25 30 39 45 41 40 38 38 37 35 31 28 25
4 6 5 4 3 5 5 5 5 7 6 7 5 6 6 6 4 4 2 2 6 9 10 16 18 19 22 24 23 22 23 29 35 34 32 31 32 35 40 42 39 37 37 39 37 36 31 28 27
4 5 6 4 3 1 5 5 8 5 6 5 2 4 5 5 6 7 7 6 5 3 8 13 16 20 25 26 28 26 24 24 33 33 32 34 37 40 37 40 37 33 36 39 41 36 32 27 26
4 3 5 3 4 6 5 5 6 5 3 6 6 8 9 9 8 8 6 8 9 8 9 11 15 18 23 28 30 28 21 23 30 33 30 33 37 39 37 37 32 38 34 40 42 37 34 30 26
5 3 2 2 4 4 4 6 7 6 9 9 9 9 11 11 9 8 8 9 5 8 13 19 22 21 24 26 29 25 17 20 25 29 31 33 35 38 39 38 39 37 36 44 42 40 34 31 26
7 12 5 3 7 4 4 12 7 8 9 9 10 19 16 10 9 6 5 5 4 7 10 14 19 22 22 25 27 23 17 15 20 26 29 32 36 39 42 41 45 35 37 44 41 37 35 32 31
Wind_Direction
323 318 320 25 50 61 276 276 264 288 266 7 68 93 122 76 144 191 162 190 186 165 165 167 164 162 157 152 150 151 150 149 145 147 143 139 138 137 135 134 133 132 132 128 124 116 96 76 63
323 350 68 74 84 32 274 264 304 292 256 130 95 86 58 73 61 105 103 160 169 166 166 168 167 165 162 157 154 155 154 154 152 153 149 144 141 139 138 137 137 136 136 135 132 120 92 79 58
333 1 82 94 110 187 227 281 296 309 312 355 100 93 103 122 47 103 157 159 165 165 169 169 168 167 166 163 159 159 159 159 157 158 157 152 147 148 145 144 142 140 141 142 141 128 108 82 52
18 24 25 89 248 255 234 280 311 291 317 360 132 74 40 93 102 142 154 161 165 167 172 173 172 170 169 168 164 165 164 165 163 163 160 158 155 155 157 153 151 149 148 149 152 142 126 89 56
53 60 60 20 268 276 282 257 259 255 75 357 42 61 75 14 117 141 154 160 167 171 175 175 176 173 172 172 171 169 171 169 170 168 166 164 162 163 169 165 162 159 154 151 166 153 135 79 70
28 93 61 248 269 305 300 314 330 85 9 359 46 84 70 25 73 130 162 172 177 172 176 178 181 178 176 176 175 173 175 175 176 175 173 170 167 170 177 177 175 171 167 164 168 168 136 88 88
120 86 210 270 274 337 327 329 23 31 21 7 132 102 163 18 11 91 150 170 175 171 172 180 182 181 181 180 179 178 178 181 180 180 180 176 172 177 183 184 186 188 182 181 179 184 158 103 110
109 91 316 276 321 281 316 5 345 22 30 315 48 36 319 278 356 82 145 159 164 169 172 177 183 183 182 181 184 182 184 186 185 185 184 183 180 184 192 195 194 198 195 194 193 192 202 141 140
102 59 302 265 4 281 312 24 335 301 47 337 21 144 278 78 68 74 124 143 159 167 176 181 183 185 183 180 181 185 189 191 191 190 190 188 189 191 194 201 205 204 204 207 202 206 224 190 178
103 115 231 209 273 284 309 22 340 12 344 338 342 347 18 42 58 39 120 182 175 181 186 190 190 192 186 183 183 185 190 194 195 196 195 195 195 198 200 205 211 212 214 217 213 214 228 238 192
196 201 200 256 251 342 321 303 311 27 322 281 279 302 317 358 55 53 357 134 200 208 191 196 195 193 191 188 187 185 191 197 201 203 202 202 200 200 203 208 212 213 217 223 219 216 218 229 221
293 199 225 278 3 347 307 276 317 249 249 241 267 257 278 335 247 139 51 345 103 193 196 197 198 195 192 197 191 190 194 197 203 208 209 208 207 206 209 213 214 218 218 224 221 223 224 236 245
79 318 335 320 302 278 287 285 262 269 264 264 272 283 281 266 234 261 255 287 124 169 188 192 195 195 195 204 197 197 200 202 204 208 212 213 214 213 213 217 216 220 221 226 222 228 238 256 220
307 324 302 300 299 273 254 280 55 277 268 276 270 270 269 247 221 280 291 287 157 157 178 191 196 198 200 210 206 206 208 208 208 212 215 216 218 218 218 222 225 230 229 227 225 229 238 205 180
283 314 320 303 291 292 142 313 254 259 284 300 275 202 202 255 257 206 204 134 202 166 175 189 202 204 206 216 217 214 215 217 216 216 219 219 222 223 223 226 229 232 231 228 230 242 233 168 165
295 71 360 293 340 273 120 266 280 273 301 253 222 218 211 211 217 222 187 189 211 171 185 188 202 208 208 214 222 220 222 220 224 227 225 223 224 226 222 233 229 232 241 240 238 218 172 169 162
11 248 292 312 286 279 216 267 280 302 304 274 264 258 231 231 228 221 219 217 225 206 179 196 206 213 209 223 229 233 226 226 228 227 229 231 227 226 224 234 228 231 247 235 203 181 179 170 171
254 274 277 288 277 342 324 283 289 292 308 285 278 262 252 253 236 226 230 231 227 215 206 196 202 212 222 225 226 236 233 238 237 237 235 235 230 227 225 229 229 224 223 204 196 190 186 181 176
241 254 268 273 302 341 268 285 298 278 289 283 278 260 234 237 241 242 238 242 226 222 218 212 202 212 215 215 222 223 240 242 243 244 237 237 236 230 224 227 231 226 225 213 198 188 182 178 173
298 297 300 291 287 331 312 294 291 283 265 264 279 276 251 224 226 232 224 207 217 226 229 224 220 220 222 230 239 238 239 250 243 245 243 239 233 237 229 226 227 227 226 219 193 185 180 177 181
299 245 277 279 295 311 297 293 274 293 283 255 276 312 241 223 223 185 155 173 187 209 225 230 232 232 234 236 236 230 232 238 246 244 249 241 231 227 228 224 223 227 229 207 191 189 185 173 186
223 228 285 304 343 304 49 290 330 285 296 258 316 333 226 192 192 178 198 199 179 183 210 239 249 249 245 239 236 236 224 220 233 242 245 241 231 226 221 223 220 228 224 206 196 200 196 195 185
231 240 270 278 253 34 315 36 274 314 329 327 329 335 28 353 167 241 246 185 129 100 60 45 28 335 265 246 245 241 232 235 240 240 248 240 238 228 221 223 236 226 228 213 205 203 201 207 201
253 3 335 328 112 87 193 197 279 306 300 323 358 355 40 39 52 46 54 65 53 58 30 2 346 334 344 302 257 248 239 233 230 230 238 232 232 223 224 220 234 241 225 221 216 211 207 208 208
35 47 336 344 1 221 298 8 244 270 247 178 101 70 89 57 47 37 50 44 32 22 11 5 346 334 333 321 310 265 252 253 254 250 230 229 223 224 224 230 222 233 224 226 219 209 206 205 204
266 158 164 259 233 256 297 238 254 216 244 265 139 141 155 161 182 167 167 21 13 3 346 340 331 326 327 319 313 301 277 246 246 247 241 243 231 219 212 209 214 223 226 227 221 214 207 209 203
292 292 210 213 245 340 226 282 315 227 256 192 272 196 214 225 210 180 209 230 258 297 310 324 314 311 322 321 308 300 304 283 246 246 252 253 238 228 215 208 216 219 228 225 220 212 207 200 196
158 245 305 355 300 251 271 235 226 245 215 184 200 226 245 226 219 217 219 211 215 262 299 312 320 326 326 327 325 301 294 291 258 248 249 254 240 225 208 207 202 211 233 224 218 212 204 193 182
311 286 246 253 225 243 244 254 226 217 221 245 239 243 247 244 226 210 201 198 223 306 325 322 322 336 332 333 326 307 302 303 276 247 249 241 234 217 202 203 195 204 213 220 212 206 192 188 176
229 262 185 180 278 262 265 266 231 272 278 275 263 298 299 227 215 187 171 174 231 266 290 306 310 315 324 322 322 299 303 309 282 248 245 233 215 200 197 197 190 207 217 212 205 193 187 184 175